TimeMST,TemperatureF,Dew PointF,Humidity,Sea Level PressureIn,VisibilityMPH,Wind Direction,Wind SpeedMPH,Gust SpeedMPH,PrecipitationIn,Events,Conditions,WindDirDegrees,DateUTC
12:55 AM,43.0,23.0,45,30.02,10.0,NW,28.8,34.5,N/A,,Mostly Cloudy,310,2011-11-26 07:55:00
1:55 AM,42.1,21.0,43,30.06,10.0,NW,23.0,35.7,N/A,,Mostly Cloudy,310,2011-11-26 08:55:00
2:55 AM,39.0,23.0,53,30.10,10.0,NW,31.1,43.7,N/A,,Clear,320,2011-11-26 09:55:00
3:55 AM,37.0,24.1,59,30.17,10.0,NW,27.6,41.4,N/A,,Clear,320,2011-11-26 10:55:00
4:55 AM,36.0,24.1,62,30.25,10.0,NW,32.2,42.6,N/A,,Clear,320,2011-11-26 11:55:00
5:55 AM,35.1,23.0,61,30.30,10.0,NW,25.3,39.1,N/A,,Clear,320,2011-11-26 12:55:00
6:55 AM,35.1,19.0,52,30.33,10.0,NW,31.1,38.0,N/A,,Clear,320,2011-11-26 13:55:00
7:55 AM,36.0,12.9,39,30.38,10.0,NW,24.2,33.4,N/A,,Clear,320,2011-11-26 14:55:00
8:55 AM,37.9,10.9,33,30.38,10.0,NW,35.7,47.2,N/A,,Clear,320,2011-11-26 15:55:00
9:55 AM,39.0,10.0,30,30.38,10.0,NNW,36.8,50.6,N/A,,Clear,330,2011-11-26 16:55:00
10:55 AM,39.9,10.0,29,30.38,10.0,NNW,36.8,51.8,N/A,,Clear,330,2011-11-26 17:55:00
11:55 AM,41.0,6.1,24,30.36,10.0,NNW,31.1,43.7,N/A,,Clear,330,2011-11-26 18:55:00
12:55 PM,42.1,5.0,22,30.35,10.0,NNW,40.3,56.4,N/A,,Clear,330,2011-11-26 19:55:00
1:55 PM,43.0,5.0,21,30.37,10.0,NW,36.8,47.2,N/A,,Clear,320,2011-11-26 20:55:00
2:55 PM,42.1,5.0,22,30.40,10.0,NW,25.3,39.1,N/A,,Clear,320,2011-11-26 21:55:00
3:55 PM,39.9,7.0,26,30.43,10.0,NW,18.4,28.8,N/A,,Clear,320,2011-11-26 22:55:00
4:55 PM,35.1,9.0,34,30.48,10.0,WNW,8.1,-,N/A,,Clear,290,2011-11-26 23:55:00
5:55 PM,34.0,9.0,35,30.49,10.0,NW,10.4,-,N/A,,Clear,310,2011-11-27 00:55:00
6:55 PM,30.9,9.0,40,30.49,10.0,WNW,8.1,-,N/A,,Clear,300,2011-11-27 01:55:00
7:55 PM,33.1,10.0,38,30.50,10.0,WSW,11.5,-,N/A,,Clear,250,2011-11-27 02:55:00
8:55 PM,25.0,10.9,55,30.51,10.0,West,10.4,-,N/A,,Clear,260,2011-11-27 03:55:00
9:55 PM,33.1,10.0,38,30.49,10.0,WSW,6.9,-,N/A,,Clear,240,2011-11-27 04:55:00
10:55 PM,19.9,10.0,65,30.48,10.0,Calm,Calm,-,N/A,,Clear,0,2011-11-27 05:55:00
11:55 PM,27.0,10.0,49,30.45,10.0,WSW,10.4,-,N/A,,Clear,250,2011-11-27 06:55:00